Torna al catalogo

STARLINK-32536

AttivoComunicazioniVLEO
NORAD 61925·PAYLOAD·🇺🇸 United States

Lanciato Nov 11, 2024 da Cape Canaveral Space Force Station

Loading…

Prossimi Passaggi (prossime 24 ore)

TLE

AggiornatoSource: CelesTrak SupGP

Epoca: Sep 15, 2026, 03:17 UTC

1 61925C 24207P   26258.13729167  .00011785  00000+0  42681-3 0  2580
2 61925  43.0029 295.8065 0001483 268.5103 311.4535 15.27575759    15

Traccia STARLINK-32536 in tempo reale con AllMySat

Download on the App Store